Zurück zum Katalog

COSMOS 1579 COOLANT

LostLEO
NORAD 27911·DEBRIS·🇷🇺 Russia

Gestartet Jun 29, 1984 von Baikonur Cosmodrome

Loading…

Nächste Überflüge (nächste 24 Stunden)

TLE

VeraltetSource: Space-Track

Epoche: Dec 16, 2023, 23:44 UTC

1 27911U 84069AD  23350.98938590  .00000186  00000-0  21650-3 0  9993
2 27911  65.0463 122.1341 0056655 312.6915  46.9384 13.91025722 68307

Verfolge COSMOS 1579 COOLANT in Echtzeit mit AllMySat

Download on the App Store